Year,Month,Day,Hour,Minute,Value (Times are PST for temperature in C)
2004,07,19,00,00,17.50
2004,07,19,00,01,17.50
2004,07,19,00,02,17.50
2004,07,19,00,03,17.40
2004,07,19,00,04,17.40
2004,07,19,00,05,17.40
2004,07,19,00,06,17.40
2004,07,19,00,07,17.40
2004,07,19,00,08,17.40
2004,07,19,00,09,17.40
2004,07,19,00,10,17.40
2004,07,19,00,11,17.40
2004,07,19,00,12,17.50
2004,07,19,00,13,17.50
2004,07,19,00,14,17.50
2004,07,19,00,15,17.60
2004,07,19,00,16,17.70
2004,07,19,00,17,17.70
2004,07,19,00,18,17.80
2004,07,19,00,19,17.90
2004,07,19,00,20,17.90
2004,07,19,00,21,17.90
2004,07,19,00,22,17.90
2004,07,19,00,23,18.00
2004,07,19,00,24,18.10
2004,07,19,00,25,18.10
2004,07,19,00,26,18.10
2004,07,19,00,27,18.10
2004,07,19,00,28,18.00
2004,07,19,00,29,17.90
2004,07,19,00,30,17.70
2004,07,19,00,31,17.60
2004,07,19,00,32,17.50
2004,07,19,00,33,17.40
2004,07,19,00,34,17.30
2004,07,19,00,35,17.30
2004,07,19,00,36,17.20
2004,07,19,00,37,17.10
2004,07,19,00,38,17.10
2004,07,19,00,39,17.00
2004,07,19,00,40,16.90
2004,07,19,00,41,16.80
2004,07,19,00,42,16.80
2004,07,19,00,43,16.80
2004,07,19,00,44,16.80
2004,07,19,00,45,16.90
2004,07,19,00,46,16.90
2004,07,19,00,47,16.90
2004,07,19,00,48,16.90
2004,07,19,00,49,16.70
2004,07,19,00,50,16.60
2004,07,19,00,51,16.50
2004,07,19,00,52,16.40
2004,07,19,00,53,16.40
2004,07,19,00,54,16.30
2004,07,19,00,55,16.20
2004,07,19,00,56,16.10
2004,07,19,00,57,16.10
2004,07,19,00,58,16.10
2004,07,19,00,59,16.00
2004,07,19,01,00,15.90
2004,07,19,01,01,15.90
2004,07,19,01,02,15.80
2004,07,19,01,03,15.80
2004,07,19,01,04,15.70
2004,07,19,01,05,15.60
2004,07,19,01,06,15.60
2004,07,19,01,07,15.50
2004,07,19,01,08,15.40
2004,07,19,01,09,15.40
2004,07,19,01,10,15.30
2004,07,19,01,11,15.30
2004,07,19,01,12,15.30
2004,07,19,01,13,15.30
2004,07,19,01,14,15.20
2004,07,19,01,15,15.20
2004,07,19,01,16,15.20
2004,07,19,01,17,15.20
2004,07,19,01,18,15.20
2004,07,19,01,19,15.20
2004,07,19,01,20,15.20
2004,07,19,01,21,15.30
2004,07,19,01,22,15.30
2004,07,19,01,23,15.20
2004,07,19,01,24,15.20
2004,07,19,01,25,15.20
2004,07,19,01,26,15.20
2004,07,19,01,27,15.20
2004,07,19,01,28,15.20
2004,07,19,01,29,15.20
2004,07,19,01,30,15.10
2004,07,19,01,31,15.10
2004,07,19,01,32,15.00
2004,07,19,01,33,15.00
2004,07,19,01,34,15.00
2004,07,19,01,35,14.90
2004,07,19,01,36,14.90
2004,07,19,01,37,14.90
2004,07,19,01,38,14.80
2004,07,19,01,39,14.80
2004,07,19,01,40,14.80
2004,07,19,01,41,14.70
2004,07,19,01,42,14.70
2004,07,19,01,43,14.70
2004,07,19,01,44,14.80
2004,07,19,01,45,14.80
2004,07,19,01,46,14.80
2004,07,19,01,47,14.80
2004,07,19,01,48,14.80
2004,07,19,01,49,14.80
2004,07,19,01,50,14.80
2004,07,19,01,51,14.90
2004,07,19,01,52,14.90
2004,07,19,01,53,14.90
2004,07,19,01,54,14.80
2004,07,19,01,55,14.80
2004,07,19,01,56,14.80
2004,07,19,01,57,14.80
2004,07,19,01,58,14.90
2004,07,19,01,59,14.90
2004,07,19,02,00,14.90
2004,07,19,02,01,14.90
2004,07,19,02,02,15.00
2004,07,19,02,03,15.00
2004,07,19,02,04,14.90
2004,07,19,02,05,14.90
2004,07,19,02,06,14.90
2004,07,19,02,07,14.90
2004,07,19,02,08,14.90
2004,07,19,02,09,14.90
2004,07,19,02,10,14.80
2004,07,19,02,11,14.80
2004,07,19,02,12,14.80
2004,07,19,02,13,14.80
2004,07,19,02,14,14.80
2004,07,19,02,15,14.80
2004,07,19,02,16,14.90
2004,07,19,02,17,14.90
2004,07,19,02,18,14.90
2004,07,19,02,19,14.90
2004,07,19,02,20,14.90
2004,07,19,02,21,14.80
2004,07,19,02,22,14.80
2004,07,19,02,23,14.80
2004,07,19,02,24,14.80
2004,07,19,02,25,14.80
2004,07,19,02,26,14.80
2004,07,19,02,27,14.80
2004,07,19,02,28,14.80
2004,07,19,02,29,14.80
2004,07,19,02,30,14.80
2004,07,19,02,31,14.80
2004,07,19,02,32,14.80
2004,07,19,02,33,14.80
2004,07,19,02,34,14.90
2004,07,19,02,35,14.90
2004,07,19,02,36,14.90
2004,07,19,02,37,14.90
2004,07,19,02,38,14.90
2004,07,19,02,39,15.00
2004,07,19,02,40,15.00
2004,07,19,02,41,15.00
2004,07,19,02,42,15.00
2004,07,19,02,43,15.10
2004,07,19,02,44,15.10
2004,07,19,02,45,15.10
2004,07,19,02,46,15.10
2004,07,19,02,47,15.00
2004,07,19,02,48,15.10
2004,07,19,02,49,15.10
2004,07,19,02,50,15.20
2004,07,19,02,51,15.20
2004,07,19,02,52,15.30
2004,07,19,02,53,15.30
2004,07,19,02,54,15.30
2004,07,19,02,55,15.30
2004,07,19,02,56,15.30
2004,07,19,02,57,15.30
2004,07,19,02,58,15.30
2004,07,19,02,59,15.30
2004,07,19,03,00,15.30
2004,07,19,03,01,15.30
2004,07,19,03,02,15.30
2004,07,19,03,03,15.40
2004,07,19,03,04,15.40
2004,07,19,03,05,15.40
2004,07,19,03,06,15.40
2004,07,19,03,07,15.40
2004,07,19,03,08,15.40
2004,07,19,03,09,15.40
2004,07,19,03,10,15.40
2004,07,19,03,11,15.40
2004,07,19,03,12,15.50
2004,07,19,03,13,15.50
2004,07,19,03,14,15.50
2004,07,19,03,15,15.60
2004,07,19,03,16,15.60
2004,07,19,03,17,15.60
2004,07,19,03,18,15.70
2004,07,19,03,19,15.60
2004,07,19,03,20,15.60
2004,07,19,03,21,15.50
2004,07,19,03,22,15.50
2004,07,19,03,23,15.40
2004,07,19,03,24,15.40
2004,07,19,03,25,15.40
2004,07,19,03,26,15.40
2004,07,19,03,27,15.40
2004,07,19,03,28,15.30
2004,07,19,03,29,15.30
2004,07,19,03,30,15.30
2004,07,19,03,31,15.10
2004,07,19,03,32,15.10
2004,07,19,03,33,15.00
2004,07,19,03,34,14.90
2004,07,19,03,35,14.90
2004,07,19,03,36,14.70
2004,07,19,03,37,14.60
2004,07,19,03,38,14.50
2004,07,19,03,39,14.50
2004,07,19,03,40,14.40
2004,07,19,03,41,14.30
2004,07,19,03,42,14.30
2004,07,19,03,43,14.20
2004,07,19,03,44,14.20
2004,07,19,03,45,14.20
2004,07,19,03,46,14.20
2004,07,19,03,47,14.20
2004,07,19,03,48,14.20
2004,07,19,03,49,14.20
2004,07,19,03,50,14.20
2004,07,19,03,51,14.20
2004,07,19,03,52,14.10
2004,07,19,03,53,14.10
2004,07,19,03,54,14.00
2004,07,19,03,55,14.00
2004,07,19,03,56,14.00
2004,07,19,03,57,14.00
2004,07,19,03,58,14.10
2004,07,19,03,59,14.10
2004,07,19,04,00,14.20
2004,07,19,04,01,14.20
2004,07,19,04,02,14.20
2004,07,19,04,03,14.20
2004,07,19,04,04,14.20
2004,07,19,04,05,14.20
2004,07,19,04,06,14.20
2004,07,19,04,07,14.20
2004,07,19,04,08,14.30
2004,07,19,04,09,14.40
2004,07,19,04,10,14.50
2004,07,19,04,11,14.50
2004,07,19,04,12,14.60
2004,07,19,04,13,14.60
2004,07,19,04,14,14.60
2004,07,19,04,15,14.70
2004,07,19,04,16,14.70
2004,07,19,04,17,14.60
2004,07,19,04,18,14.60
2004,07,19,04,19,14.60
2004,07,19,04,20,14.60
2004,07,19,04,21,14.50
2004,07,19,04,22,14.50
2004,07,19,04,23,14.50
2004,07,19,04,24,14.50
2004,07,19,04,25,14.50
2004,07,19,04,26,14.50
2004,07,19,04,27,14.60
2004,07,19,04,28,14.60
2004,07,19,04,29,14.70
2004,07,19,04,30,14.70
2004,07,19,04,31,14.70
2004,07,19,04,32,14.70
2004,07,19,04,33,14.70
2004,07,19,04,34,14.70
2004,07,19,04,35,14.80
2004,07,19,04,36,14.80
2004,07,19,04,37,14.80
2004,07,19,04,38,14.80
2004,07,19,04,39,14.80
2004,07,19,04,40,14.80
2004,07,19,04,41,14.80
2004,07,19,04,42,14.80
2004,07,19,04,43,14.80
2004,07,19,04,44,14.80
2004,07,19,04,45,14.80
2004,07,19,04,46,14.80
2004,07,19,04,47,14.80
2004,07,19,04,48,14.80
2004,07,19,04,49,14.80
2004,07,19,04,50,14.80
2004,07,19,04,51,14.90
2004,07,19,04,52,14.80
2004,07,19,04,53,14.80
2004,07,19,04,54,14.80
2004,07,19,04,55,14.90
2004,07,19,04,56,14.90
2004,07,19,04,57,14.90
2004,07,19,04,58,14.90
2004,07,19,04,59,14.90
2004,07,19,05,00,14.90
2004,07,19,05,01,14.90
2004,07,19,05,02,14.90
2004,07,19,05,03,14.90
2004,07,19,05,04,14.90
2004,07,19,05,05,14.90
2004,07,19,05,06,14.90
2004,07,19,05,07,14.80
2004,07,19,05,08,14.80
2004,07,19,05,09,14.60
2004,07,19,05,10,14.50
2004,07,19,05,11,14.40
2004,07,19,05,12,14.30
2004,07,19,05,13,14.20
2004,07,19,05,14,14.20
2004,07,19,05,15,14.20
2004,07,19,05,16,14.20
2004,07,19,05,17,14.20
2004,07,19,05,18,14.20
2004,07,19,05,19,14.20
2004,07,19,05,20,14.20
2004,07,19,05,21,14.20
2004,07,19,05,22,14.20
2004,07,19,05,23,14.20
2004,07,19,05,24,14.30
2004,07,19,05,25,14.40
2004,07,19,05,26,14.50
2004,07,19,05,27,14.50
2004,07,19,05,28,14.50
2004,07,19,05,29,14.50
2004,07,19,05,30,14.50
2004,07,19,05,31,14.50
2004,07,19,05,32,14.60
2004,07,19,05,33,14.60
2004,07,19,05,34,14.60
2004,07,19,05,35,14.60
2004,07,19,05,36,14.60
2004,07,19,05,37,14.50
2004,07,19,05,38,14.50
2004,07,19,05,39,14.50
2004,07,19,05,40,14.50
2004,07,19,05,41,14.50
2004,07,19,05,42,14.50
2004,07,19,05,43,14.60
2004,07,19,05,44,14.70
2004,07,19,05,45,14.70
2004,07,19,05,46,14.70
2004,07,19,05,47,14.60
2004,07,19,05,48,14.60
2004,07,19,05,49,14.60
2004,07,19,05,50,14.70
2004,07,19,05,51,14.70
2004,07,19,05,52,14.70
2004,07,19,05,53,14.60
2004,07,19,05,54,14.60
2004,07,19,05,55,14.60
2004,07,19,05,56,14.60
2004,07,19,05,57,14.60
2004,07,19,05,58,14.70
2004,07,19,05,59,14.70
2004,07,19,06,00,14.70
2004,07,19,06,01,14.70
2004,07,19,06,02,14.70
2004,07,19,06,03,14.70
2004,07,19,06,04,14.70
2004,07,19,06,05,14.80
2004,07,19,06,06,14.80
2004,07,19,06,07,14.80
2004,07,19,06,08,14.90
2004,07,19,06,09,14.90
2004,07,19,06,10,14.90
2004,07,19,06,11,14.90
2004,07,19,06,12,15.00
2004,07,19,06,13,15.00
2004,07,19,06,14,15.10
2004,07,19,06,15,15.10
2004,07,19,06,16,15.20
2004,07,19,06,17,15.30
2004,07,19,06,18,15.30
2004,07,19,06,19,15.50
2004,07,19,06,20,15.50
2004,07,19,06,21,15.60
2004,07,19,06,22,15.70
2004,07,19,06,23,15.80
2004,07,19,06,24,15.90
2004,07,19,06,25,15.90
2004,07,19,06,26,16.00
2004,07,19,06,27,16.10
2004,07,19,06,28,16.10
2004,07,19,06,29,16.10
2004,07,19,06,30,16.00
2004,07,19,06,31,16.00
2004,07,19,06,32,16.10
2004,07,19,06,33,16.10
2004,07,19,06,34,16.00
2004,07,19,06,35,16.00
2004,07,19,06,36,16.10
2004,07,19,06,37,16.10
2004,07,19,06,38,16.10
2004,07,19,06,39,16.00
2004,07,19,06,40,16.10
2004,07,19,06,41,16.10
2004,07,19,06,42,16.10
2004,07,19,06,43,16.10
2004,07,19,06,44,16.10
2004,07,19,06,45,16.10
2004,07,19,06,46,16.10
2004,07,19,06,47,16.20
2004,07,19,06,48,16.20
2004,07,19,06,49,16.10
2004,07,19,06,50,16.10
2004,07,19,06,51,16.00
2004,07,19,06,52,15.70
2004,07,19,06,53,15.50
2004,07,19,06,54,15.40
2004,07,19,06,55,15.30
2004,07,19,06,56,15.10
2004,07,19,06,57,15.00
2004,07,19,06,58,14.80
2004,07,19,06,59,14.80
2004,07,19,07,00,14.70
2004,07,19,07,01,14.70
2004,07,19,07,02,14.70
2004,07,19,07,03,14.70
2004,07,19,07,04,14.70
2004,07,19,07,05,14.70
2004,07,19,07,06,14.70
2004,07,19,07,07,14.70
2004,07,19,07,08,14.80
2004,07,19,07,09,14.80
2004,07,19,07,10,14.80
2004,07,19,07,11,14.80
2004,07,19,07,12,14.80
2004,07,19,07,13,14.90
2004,07,19,07,14,14.90
2004,07,19,07,15,15.00
2004,07,19,07,16,15.00
2004,07,19,07,17,15.10
2004,07,19,07,18,15.20
2004,07,19,07,19,15.30
2004,07,19,07,20,15.30
2004,07,19,07,21,15.30
2004,07,19,07,22,15.40
2004,07,19,07,23,15.40
2004,07,19,07,24,15.50
2004,07,19,07,25,15.60
2004,07,19,07,26,15.70
2004,07,19,07,27,15.80
2004,07,19,07,28,15.80
2004,07,19,07,29,15.80
2004,07,19,07,30,15.90
2004,07,19,07,31,16.10
2004,07,19,07,32,16.10
2004,07,19,07,33,16.20
2004,07,19,07,34,16.30
2004,07,19,07,35,16.40
2004,07,19,07,36,16.40
2004,07,19,07,37,16.50
2004,07,19,07,38,16.70
2004,07,19,07,39,16.70
2004,07,19,07,40,16.70
2004,07,19,07,41,16.70
2004,07,19,07,42,16.70
2004,07,19,07,43,16.70
2004,07,19,07,44,16.80
2004,07,19,07,45,16.90
2004,07,19,07,46,17.10
2004,07,19,07,47,17.20
2004,07,19,07,48,17.10
2004,07,19,07,49,17.00
2004,07,19,07,50,17.00
2004,07,19,07,51,17.00
2004,07,19,07,52,16.90
2004,07,19,07,53,16.90
2004,07,19,07,54,16.90
2004,07,19,07,55,16.90
2004,07,19,07,56,17.00
2004,07,19,07,57,17.00
2004,07,19,07,58,17.10
2004,07,19,07,59,17.10
2004,07,19,08,00,17.10
2004,07,19,08,01,17.00
2004,07,19,08,02,17.00
2004,07,19,08,03,17.00
2004,07,19,08,04,17.00
2004,07,19,08,05,17.00
2004,07,19,08,06,17.10
2004,07,19,08,07,17.00
2004,07,19,08,08,17.00
2004,07,19,08,09,16.90
2004,07,19,08,10,16.80
2004,07,19,08,11,16.70
2004,07,19,08,12,16.70
2004,07,19,08,13,16.70
2004,07,19,08,14,16.70
2004,07,19,08,15,16.70
2004,07,19,08,16,16.60
2004,07,19,08,17,16.60
2004,07,19,08,18,16.60
2004,07,19,08,19,16.60
2004,07,19,08,20,16.60
2004,07,19,08,21,16.60
2004,07,19,08,22,16.60
2004,07,19,08,23,16.50
2004,07,19,08,24,16.50
2004,07,19,08,25,16.70
2004,07,19,08,26,16.80
2004,07,19,08,27,16.90
2004,07,19,08,28,17.00
2004,07,19,08,29,17.10
2004,07,19,08,30,17.10
2004,07,19,08,31,17.10
2004,07,19,08,32,17.10
2004,07,19,08,33,17.10
2004,07,19,08,34,17.10
2004,07,19,08,35,17.20
2004,07,19,08,36,17.30
2004,07,19,08,37,17.30
2004,07,19,08,38,17.40
2004,07,19,08,39,17.40
2004,07,19,08,40,17.50
2004,07,19,08,41,17.50
2004,07,19,08,42,17.70
2004,07,19,08,43,17.90
2004,07,19,08,44,18.00
2004,07,19,08,45,18.30
2004,07,19,08,46,18.40
2004,07,19,08,47,18.50
2004,07,19,08,48,18.50
2004,07,19,08,49,18.70
2004,07,19,08,50,18.60
2004,07,19,08,51,18.60
2004,07,19,08,52,18.60
2004,07,19,08,53,18.50
2004,07,19,08,54,18.60
2004,07,19,08,55,18.60
2004,07,19,08,56,18.70
2004,07,19,08,57,18.80
2004,07,19,08,58,18.90
2004,07,19,08,59,19.00
2004,07,19,09,00,19.10
2004,07,19,09,01,19.20
2004,07,19,09,02,19.30
2004,07,19,09,03,19.30
2004,07,19,09,04,19.40
2004,07,19,09,05,19.40
2004,07,19,09,06,19.40
2004,07,19,09,07,19.50
2004,07,19,09,08,19.60
2004,07,19,09,09,19.80
2004,07,19,09,10,19.90
2004,07,19,09,11,20.00
2004,07,19,09,12,20.30
2004,07,19,09,13,20.40
2004,07,19,09,14,20.50
2004,07,19,09,15,20.60
2004,07,19,09,16,20.80
2004,07,19,09,17,20.80
2004,07,19,09,18,20.80
2004,07,19,09,19,20.60
2004,07,19,09,20,20.70
2004,07,19,09,21,20.70
2004,07,19,09,22,20.60
2004,07,19,09,23,20.60
2004,07,19,09,24,20.80
2004,07,19,09,25,20.90
2004,07,19,09,26,21.00
2004,07,19,09,27,20.90
2004,07,19,09,28,21.00
2004,07,19,09,29,21.00
2004,07,19,09,30,21.00
2004,07,19,09,31,20.90
2004,07,19,09,32,20.70
2004,07,19,09,33,20.50
2004,07,19,09,34,20.50
2004,07,19,09,35,20.60
2004,07,19,09,36,20.70
2004,07,19,09,37,20.70
2004,07,19,09,38,20.70
2004,07,19,09,39,20.70
2004,07,19,09,40,20.70
2004,07,19,09,41,20.70
2004,07,19,09,42,20.80
2004,07,19,09,43,20.70
2004,07,19,09,44,20.50
2004,07,19,09,45,20.30
2004,07,19,09,46,20.40
2004,07,19,09,47,20.50
2004,07,19,09,48,20.50
2004,07,19,09,49,20.60
2004,07,19,09,50,20.80
2004,07,19,09,51,20.80
2004,07,19,09,52,20.80
2004,07,19,09,53,20.80
2004,07,19,09,54,20.80
2004,07,19,09,55,20.90
2004,07,19,09,56,21.00
2004,07,19,09,57,21.00
2004,07,19,09,58,21.00
2004,07,19,09,59,21.20
2004,07,19,10,00,21.20
2004,07,19,10,01,21.20
2004,07,19,10,02,21.20
2004,07,19,10,03,21.30
2004,07,19,10,04,21.30
2004,07,19,10,05,21.60
2004,07,19,10,06,21.70
2004,07,19,10,07,21.70
2004,07,19,10,08,21.60
2004,07,19,10,09,21.50
2004,07,19,10,10,21.40
2004,07,19,10,11,21.50
2004,07,19,10,12,21.50
2004,07,19,10,13,21.40
2004,07,19,10,14,21.50
2004,07,19,10,15,21.40
2004,07,19,10,16,21.40
2004,07,19,10,17,21.40
2004,07,19,10,18,21.60
2004,07,19,10,19,21.60
2004,07,19,10,20,21.50
2004,07,19,10,21,21.60
2004,07,19,10,22,21.70
2004,07,19,10,23,21.70
2004,07,19,10,24,21.80
2004,07,19,10,25,22.00
2004,07,19,10,26,22.00
2004,07,19,10,27,21.90
2004,07,19,10,28,21.70
2004,07,19,10,29,21.80
2004,07,19,10,30,21.90
2004,07,19,10,31,21.70
2004,07,19,10,32,21.40
2004,07,19,10,33,21.40
2004,07,19,10,34,21.40
2004,07,19,10,35,21.30
2004,07,19,10,36,21.30
2004,07,19,10,37,21.60
2004,07,19,10,38,21.60
2004,07,19,10,39,21.60
2004,07,19,10,40,21.60
2004,07,19,10,41,21.80
2004,07,19,10,42,21.80
2004,07,19,10,43,21.60
2004,07,19,10,44,21.60
2004,07,19,10,45,21.60
2004,07,19,10,46,21.40
2004,07,19,10,47,21.40
2004,07,19,10,48,21.30
2004,07,19,10,49,21.10
2004,07,19,10,50,21.00
2004,07,19,10,51,21.10
2004,07,19,10,52,21.10
2004,07,19,10,53,21.10
2004,07,19,10,54,21.10
2004,07,19,10,55,21.10
2004,07,19,10,56,21.10
2004,07,19,10,57,21.20
2004,07,19,10,58,21.30
2004,07,19,10,59,21.50
2004,07,19,11,00,21.40
2004,07,19,11,01,21.50
2004,07,19,11,02,21.40
2004,07,19,11,03,21.40
2004,07,19,11,04,21.50
2004,07,19,11,05,21.60
2004,07,19,11,06,21.70
2004,07,19,11,07,22.10
2004,07,19,11,08,22.20
2004,07,19,11,09,22.20
2004,07,19,11,10,22.20
2004,07,19,11,11,22.20
2004,07,19,11,12,22.20
2004,07,19,11,13,22.20
2004,07,19,11,14,22.20
2004,07,19,11,15,22.30
2004,07,19,11,16,22.20
2004,07,19,11,17,22.20
2004,07,19,11,18,22.20
2004,07,19,11,19,22.20
2004,07,19,11,20,22.30
2004,07,19,11,21,22.30
2004,07,19,11,22,22.40
2004,07,19,11,23,22.40
2004,07,19,11,24,22.40
2004,07,19,11,25,22.30
2004,07,19,11,26,22.20
2004,07,19,11,27,22.30
2004,07,19,11,28,22.30
2004,07,19,11,29,22.30
2004,07,19,11,30,22.20
2004,07,19,11,31,22.00
2004,07,19,11,32,21.90
2004,07,19,11,33,21.90
2004,07,19,11,34,22.00
2004,07,19,11,35,22.00
2004,07,19,11,36,22.10
2004,07,19,11,37,22.10
2004,07,19,11,38,21.90
2004,07,19,11,39,21.70
2004,07,19,11,40,21.60
2004,07,19,11,41,21.60
2004,07,19,11,42,21.60
2004,07,19,11,43,21.60
2004,07,19,11,44,21.90
2004,07,19,11,45,22.00
2004,07,19,11,46,22.10
2004,07,19,11,47,22.30
2004,07,19,11,48,22.10
2004,07,19,11,49,22.20
2004,07,19,11,50,22.20
2004,07,19,11,51,22.20
2004,07,19,11,52,22.10
2004,07,19,11,53,22.10
2004,07,19,11,54,22.00
2004,07,19,11,55,21.90
2004,07,19,11,56,22.00
2004,07,19,11,57,22.00
2004,07,19,11,58,22.10
2004,07,19,11,59,22.20
2004,07,19,12,00,22.10
2004,07,19,12,01,22.20
2004,07,19,12,02,22.10
2004,07,19,12,03,22.20
2004,07,19,12,04,22.30
2004,07,19,12,05,22.70
2004,07,19,12,06,22.90
2004,07,19,12,07,23.10
2004,07,19,12,08,23.30
2004,07,19,12,09,23.50
2004,07,19,12,10,23.60
2004,07,19,12,11,23.50
2004,07,19,12,12,23.40
2004,07,19,12,13,23.40
2004,07,19,12,14,23.50
2004,07,19,12,15,23.70
2004,07,19,12,16,23.80
2004,07,19,12,17,23.60
2004,07,19,12,18,23.40
2004,07,19,12,19,23.30
2004,07,19,12,20,23.30
2004,07,19,12,21,23.30
2004,07,19,12,22,23.50
2004,07,19,12,23,23.40
2004,07,19,12,24,23.20
2004,07,19,12,25,23.10
2004,07,19,12,26,23.30
2004,07,19,12,27,23.30
2004,07,19,12,28,23.40
2004,07,19,12,29,23.30
2004,07,19,12,30,23.40
2004,07,19,12,31,23.60
2004,07,19,12,32,23.90
2004,07,19,12,33,24.10
2004,07,19,12,34,24.20
2004,07,19,12,35,24.10
2004,07,19,12,36,23.80
2004,07,19,12,37,23.60
2004,07,19,12,38,23.90
2004,07,19,12,39,24.10
2004,07,19,12,40,24.30
2004,07,19,12,41,24.50
2004,07,19,12,42,24.80
2004,07,19,12,43,25.00
2004,07,19,12,44,25.00
2004,07,19,12,45,25.00
2004,07,19,12,46,25.00
2004,07,19,12,47,25.20
2004,07,19,12,48,25.10
2004,07,19,12,49,25.10
2004,07,19,12,50,25.10
2004,07,19,12,51,25.20
2004,07,19,12,52,25.40
2004,07,19,12,53,25.40
2004,07,19,12,54,25.10
2004,07,19,12,55,24.90
2004,07,19,12,56,24.90
2004,07,19,12,57,25.10
2004,07,19,12,58,25.30
2004,07,19,12,59,25.40
2004,07,19,13,00,25.60
2004,07,19,13,01,25.70
2004,07,19,13,02,25.60
2004,07,19,13,03,25.70
2004,07,19,13,04,25.70
2004,07,19,13,05,25.70
2004,07,19,13,06,25.80
2004,07,19,13,07,25.80
2004,07,19,13,08,25.70
2004,07,19,13,09,25.60
2004,07,19,13,10,25.60
2004,07,19,13,11,25.60
2004,07,19,13,12,25.70
2004,07,19,13,13,25.60
2004,07,19,13,14,25.50
2004,07,19,13,15,25.50
2004,07,19,13,16,25.60
2004,07,19,13,17,25.50
2004,07,19,13,18,25.60
2004,07,19,13,19,25.60
2004,07,19,13,20,25.70
2004,07,19,13,21,25.60
2004,07,19,13,22,25.60
2004,07,19,13,23,25.70
2004,07,19,13,24,25.70
2004,07,19,13,25,25.80
2004,07,19,13,26,25.80
2004,07,19,13,27,25.60
2004,07,19,13,28,25.80
2004,07,19,13,29,25.60
2004,07,19,13,30,25.70
2004,07,19,13,31,25.80
2004,07,19,13,32,25.60
2004,07,19,13,33,25.70
2004,07,19,13,34,25.80
2004,07,19,13,35,25.90
2004,07,19,13,36,26.10
2004,07,19,13,37,26.40
2004,07,19,13,38,26.60
2004,07,19,13,39,26.80
2004,07,19,13,40,27.10
2004,07,19,13,41,27.20
2004,07,19,13,42,27.50
2004,07,19,13,43,27.70
2004,07,19,13,44,27.90
2004,07,19,13,45,28.00
2004,07,19,13,46,28.20
2004,07,19,13,47,28.40
2004,07,19,13,48,28.50
2004,07,19,13,49,28.70
2004,07,19,13,50,28.90
2004,07,19,13,51,28.80
2004,07,19,13,52,28.70
2004,07,19,13,53,28.70
2004,07,19,13,54,28.60
2004,07,19,13,55,28.60
2004,07,19,13,56,28.50
2004,07,19,13,57,28.40
2004,07,19,13,58,28.40
2004,07,19,13,59,28.30
2004,07,19,14,00,28.20
2004,07,19,14,01,28.20
2004,07,19,14,02,28.20
2004,07,19,14,03,28.30
2004,07,19,14,04,28.00
2004,07,19,14,05,27.70
2004,07,19,14,06,27.40
2004,07,19,14,07,27.30
2004,07,19,14,08,27.20
2004,07,19,14,09,27.30
2004,07,19,14,10,27.40
2004,07,19,14,11,27.40
2004,07,19,14,12,27.30
2004,07,19,14,13,27.00
2004,07,19,14,14,26.80
2004,07,19,14,15,26.50
2004,07,19,14,16,26.50
2004,07,19,14,17,26.40
2004,07,19,14,18,26.40
2004,07,19,14,19,26.30
2004,07,19,14,20,26.40
2004,07,19,14,21,26.60
2004,07,19,14,22,26.80
2004,07,19,14,23,27.10
2004,07,19,14,24,27.30
2004,07,19,14,25,27.40
2004,07,19,14,26,27.50
2004,07,19,14,27,27.40
2004,07,19,14,28,27.30
2004,07,19,14,29,27.30
2004,07,19,14,30,27.20
2004,07,19,14,31,27.30
2004,07,19,14,32,27.30
2004,07,19,14,33,27.10
2004,07,19,14,34,27.10
2004,07,19,14,35,27.10
2004,07,19,14,36,27.10
2004,07,19,14,37,27.20
2004,07,19,14,38,27.20
2004,07,19,14,39,27.10
2004,07,19,14,40,27.00
2004,07,19,14,41,27.10
2004,07,19,14,42,27.10
2004,07,19,14,43,27.00
2004,07,19,14,44,26.90
2004,07,19,14,45,26.90
2004,07,19,14,46,26.90
2004,07,19,14,47,26.70
2004,07,19,14,48,26.90
2004,07,19,14,49,26.70
2004,07,19,14,50,26.80
2004,07,19,14,51,26.80
2004,07,19,14,52,26.60
2004,07,19,14,53,26.60
2004,07,19,14,54,26.60
2004,07,19,14,55,26.60
2004,07,19,14,56,26.70
2004,07,19,14,57,26.90
2004,07,19,14,58,26.90
2004,07,19,14,59,27.00
2004,07,19,15,00,26.80
2004,07,19,15,01,26.90
2004,07,19,15,02,26.90
2004,07,19,15,03,27.10
2004,07,19,15,04,26.90
2004,07,19,15,05,26.90
2004,07,19,15,06,26.90
2004,07,19,15,07,26.80
2004,07,19,15,08,27.00
2004,07,19,15,09,27.00
2004,07,19,15,10,27.00
2004,07,19,15,11,26.80
2004,07,19,15,12,26.70
2004,07,19,15,13,26.60
2004,07,19,15,14,26.50
2004,07,19,15,15,26.60
2004,07,19,15,16,26.60
2004,07,19,15,17,26.50
2004,07,19,15,18,26.20
2004,07,19,15,19,26.40
2004,07,19,15,20,26.50
2004,07,19,15,21,26.70
2004,07,19,15,22,26.70
2004,07,19,15,23,26.90
2004,07,19,15,24,27.10
2004,07,19,15,25,27.00
2004,07,19,15,26,27.20
2004,07,19,15,27,27.30
2004,07,19,15,28,27.20
2004,07,19,15,29,27.20
2004,07,19,15,30,27.20
2004,07,19,15,31,26.90
2004,07,19,15,32,26.80
2004,07,19,15,33,26.90
2004,07,19,15,34,26.90
2004,07,19,15,35,26.80
2004,07,19,15,36,26.90
2004,07,19,15,37,26.90
2004,07,19,15,38,26.90
2004,07,19,15,39,27.00
2004,07,19,15,40,27.00
2004,07,19,15,41,27.10
2004,07,19,15,42,27.10
2004,07,19,15,43,27.30
2004,07,19,15,44,27.30
2004,07,19,15,45,27.20
2004,07,19,15,46,27.30
2004,07,19,15,47,27.40
2004,07,19,15,48,27.50
2004,07,19,15,49,27.50
2004,07,19,15,50,27.20
2004,07,19,15,51,27.30
2004,07,19,15,52,27.40
2004,07,19,15,53,27.30
2004,07,19,15,54,27.20
2004,07,19,15,55,27.30
2004,07,19,15,56,27.30
2004,07,19,15,57,27.40
2004,07,19,15,58,27.50
2004,07,19,15,59,27.70
2004,07,19,16,00,27.80
2004,07,19,16,01,27.90
2004,07,19,16,02,27.70
2004,07,19,16,03,27.90
2004,07,19,16,04,28.00
2004,07,19,16,05,28.00
2004,07,19,16,06,28.30
2004,07,19,16,07,28.30
2004,07,19,16,08,27.90
2004,07,19,16,09,27.80
2004,07,19,16,10,27.90
2004,07,19,16,11,28.00
2004,07,19,16,12,28.00
2004,07,19,16,13,27.70
2004,07,19,16,14,27.60
2004,07,19,16,15,27.50
2004,07,19,16,16,27.50
2004,07,19,16,17,27.40
2004,07,19,16,18,27.50
2004,07,19,16,19,27.60
2004,07,19,16,20,27.70
2004,07,19,16,21,27.90
2004,07,19,16,22,28.00
2004,07,19,16,23,28.00
2004,07,19,16,24,28.00
2004,07,19,16,25,27.90
2004,07,19,16,26,28.00
2004,07,19,16,27,27.90
2004,07,19,16,28,27.80
2004,07,19,16,29,27.70
2004,07,19,16,30,27.60
2004,07,19,16,31,27.50
2004,07,19,16,32,27.60
2004,07,19,16,33,27.60
2004,07,19,16,34,27.60
2004,07,19,16,35,27.50
2004,07,19,16,36,27.60
2004,07,19,16,37,27.70
2004,07,19,16,38,27.80
2004,07,19,16,39,27.60
2004,07,19,16,40,27.60
2004,07,19,16,41,27.40
2004,07,19,16,42,27.20
2004,07,19,16,43,27.20
2004,07,19,16,44,27.10
2004,07,19,16,45,26.90
2004,07,19,16,46,26.70
2004,07,19,16,47,26.60
2004,07,19,16,48,26.70
2004,07,19,16,49,26.60
2004,07,19,16,50,26.60
2004,07,19,16,51,26.60
2004,07,19,16,52,26.70
2004,07,19,16,53,26.40
2004,07,19,16,54,26.30
2004,07,19,16,55,26.10
2004,07,19,16,56,26.00
2004,07,19,16,57,25.70
2004,07,19,16,58,25.70
2004,07,19,16,59,25.60
2004,07,19,17,00,25.30
2004,07,19,17,01,25.30
2004,07,19,17,02,25.30
2004,07,19,17,03,25.30
2004,07,19,17,04,25.20
2004,07,19,17,05,25.10
2004,07,19,17,06,25.10
2004,07,19,17,07,25.10
2004,07,19,17,08,25.10
2004,07,19,17,09,25.20
2004,07,19,17,10,25.30
2004,07,19,17,11,25.30
2004,07,19,17,12,25.30
2004,07,19,17,13,25.10
2004,07,19,17,14,25.10
2004,07,19,17,15,25.10
2004,07,19,17,16,24.80
2004,07,19,17,17,24.50
2004,07,19,17,18,24.40
2004,07,19,17,19,24.10